Overview Statistics Trail Chart Weather Telemetry Raw packets
 

This is the latest recevied weather packets stored in our database for station/object KM8V-8. If no packets are shown the sender has not sent any weather packets the latest 10 day(s).

<< 9 10 11 12 13 14 15 >>
Time Temp. Humidity Pressure Rain* Wind** Luminosity Snow
1777752621 6.67° C 59% 1016.3 hPa 0 mm - 247 W/m² -
1777752321 6.67° C 59% 1016.3 hPa 0 mm - 260 W/m² -
1777752018 7.22° C 58% 1016.3 hPa 0 mm - 301 W/m² -
1777751721 7.22° C 58% 1016.4 hPa 0 mm - 355 W/m² -
1777751421 7.22° C 57% 1016.3 hPa 0 mm - 403 W/m² -
1777751121 7.22° C 58% 1016.3 hPa 0 mm - 351 W/m² -
1777750817 7.22° C 57% 1016.3 hPa 0 mm - 420 W/m² -
1777750521 7.78° C 57% 1016.3 hPa 0 mm - 314 W/m² -
1777750223 8.33° C 54% 1016.3 hPa 0 mm - 296 W/m² -
1777749922 8.33° C 55% 1016.4 hPa 0 mm - 679 W/m² -
1777749622 8.89° C 54% 1016.4 hPa 0 mm - 635 W/m² -
1777749322 8.33° C 58% 1016.4 hPa 0 mm - 894 W/m² -
1777749023 7.78° C 57% 1016.4 hPa 0 mm - 660 W/m² -
1777748722 7.78° C 55% 1016.5 hPa 0 mm - 642 W/m² -
1777748123 7.78° C 56% 1016.5 hPa 0 mm - 558 W/m² -
1777747823 7.78° C 53% 1016.6 hPa 0 mm - 772 W/m² -
1777747523 8.33° C 54% 1016.6 hPa 0 mm - 721 W/m² -
1777747217 8.33° C 56% 1016.7 hPa 0 mm - 966 W/m² -
1777746917 7.78° C 56% 1016.6 hPa 0 mm - 944 W/m² -
1777746617 7.78° C 58% 1016.7 hPa 0 mm - 921 W/m² -
1777746317 7.78° C 58% 1016.6 hPa 0 mm - 914 W/m² -
1777746017 7.78° C 59% 1016.6 hPa 0 mm - 937 W/m² -
1777745723 7.78° C 57% 1016.7 hPa 0 mm - 565 W/m² -
1777745423 7.78° C 58% 1016.8 hPa 0 mm - 934 W/m² -
1777745123 7.78° C 60% 1016.8 hPa 0 mm - 892 W/m² -

* Rain latest hour (hover to see other rain measurements)
** Current wind speed in m/s (hover to see current wind gust speed)